This is the latest recevied weather packets stored in our database for station/object W2SRH. If no packets are shown the sender has not sent any weather packets the latest 10 day(s).
| Time | Temp. | Humidity | Pressure | Rain* | Wind** | Luminosity | Snow |
|---|---|---|---|---|---|---|---|
| 1777785544 | 9.44° C | 48% | 1002.8 hPa | 0 mm | 0.45 m/s, 313° | - | - |
| 1777784945 | 9.44° C | 47% | 1002.9 hPa | 0 mm | 0.89 m/s, 310° | - | - |
| 1777784346 | 9.44° C | 47% | 1002.9 hPa | 0 mm | 0.45 m/s, 333° | - | - |
| 1777783745 | 9.44° C | 46% | 1003 hPa | 0 mm | 0.45 m/s, 324° | - | - |
| 1777783146 | 10° C | 46% | 1003.1 hPa | 0 mm | 0.45 m/s, 313° | - | - |
| 1777782548 | 10° C | 45% | 1003.2 hPa | 0 mm | 1.34 m/s, 294° | - | - |
| 1777781944 | 10° C | 45% | 1003.1 hPa | 0 mm | 0.89 m/s, 311° | - | - |
| 1777781344 | 10° C | 44% | 1003.1 hPa | 0 mm | 1.34 m/s, 311° | - | - |
| 1777780743 | 10° C | 43% | 1003.2 hPa | 0 mm | 1.34 m/s, 302° | - | - |
| 1777780143 | 10.56° C | 43% | 1003.2 hPa | 0 mm | 0.89 m/s, 319° | - | - |
| 1777779544 | 10.56° C | 43% | 1003.1 hPa | 0 mm | 1.34 m/s, 307° | - | - |
| 1777778944 | 10.56° C | 42% | 1003.1 hPa | 0 mm | 1.34 m/s, 309° | - | - |
| 1777778343 | 10.56° C | 42% | 1003 hPa | 0 mm | 0.89 m/s, 308° | - | - |
| 1777777744 | 10.56° C | 42% | 1003 hPa | 0 mm | 0.89 m/s, 317° | - | - |
| 1777777143 | 10.56° C | 41% | 1003.1 hPa | 0 mm | 1.34 m/s, 309° | - | - |
| 1777776543 | 11.11° C | 41% | 1003.1 hPa | 0 mm | 0.89 m/s, 315° | - | - |
| 1777775944 | 11.11° C | 40% | 1003.2 hPa | 0 mm | 0.89 m/s, 312° | - | - |
| 1777775346 | 11.11° C | 39% | 1003.2 hPa | 0 mm | 0.89 m/s, 308° | - | - |
| 1777774743 | 11.67° C | 39% | 1003.2 hPa | 0 mm | 1.34 m/s, 310° | - | - |
| 1777774143 | 11.67° C | 39% | 1003.2 hPa | 0 mm | 0.89 m/s, 339° | - | - |
| 1777773544 | 11.67° C | 38% | 1003.1 hPa | 0 mm | 1.34 m/s, 321° | - | - |
| 1777772944 | 11.67° C | 38% | 1002.9 hPa | 0 mm | 0.89 m/s, 349° | - | - |
| 1777772344 | 11.67° C | 37% | 1003.1 hPa | 0 mm | 1.34 m/s, 300° | - | - |
| 1777771744 | 12.22° C | 37% | 1003 hPa | 0 mm | 0.89 m/s, 337° | - | - |
| 1777771144 | 12.22° C | 37% | 1003 hPa | 0 mm | 0.89 m/s, 340° | - | - |
* Rain latest hour (hover to see other rain measurements)
** Current wind speed in m/s (hover to see current wind gust speed)